AST,Max TemperatureF,Mean TemperatureF,Min TemperatureF,Max Dew PointF,MeanDew PointF,Min DewpointF,Max Humidity, Mean Humidity, Min Humidity, Max Sea Level PressureIn, Mean Sea Level PressureIn, Min Sea Level PressureIn, Max VisibilityMiles, Mean VisibilityMiles, Min VisibilityMiles, Max Wind SpeedMPH, Mean Wind SpeedMPH, Max Gust SpeedMPH,PrecipitationIn, CloudCover, Events, WindDirDegrees
2011-11-1,87,82,77,73,70,68,83,68,58,29.92,29.85,29.80,6,5,3,10,6,,0.00,1,,14
2011-11-2,87,82,77,72,67,61,78,60,49,29.92,29.86,29.80,6,6,6,16,8,,0.00,1,,344
2011-11-3,86,82,77,61,57,48,54,45,29,29.95,29.91,29.86,,,,21,14,,0.00,,,340
2011-11-4,84,78,73,68,62,55,69,56,45,29.98,29.95,29.92,,,,14,7,,0.00,,,344
2011-11-5,91,82,73,72,63,50,78,57,24,30.04,29.96,29.92,6,6,6,9,3,,0.00,,,11
2011-11-6,91,84,77,75,69,55,94,66,29,29.95,29.89,29.83,6,6,4,12,5,,0.00,3,,118
2011-11-7,82,76,71,75,65,55,88,69,57,29.98,29.92,29.80,6,6,4,21,10,,0.00,5,Rain,329
2011-11-8,77,72,68,55,50,46,60,46,38,30.09,30.03,29.98,6,6,6,17,11,30,0.00,1,,311
2011-11-9,78,72,66,52,48,39,56,45,27,30.06,30.04,30.01,6,6,6,15,9,25,0.00,1,,309
2011-11-10,77,72,66,59,50,36,68,50,27,30.09,30.05,30.01,,,,21,10,,0.00,,,308
2011-11-11,78,71,64,59,54,48,68,55,34,30.15,30.08,30.04,6,6,6,13,7,,0.00,,,317
2011-11-12,80,72,64,59,57,50,78,59,36,30.09,30.04,29.98,6,6,6,8,4,,0.00,1,,217
2011-11-13,82,73,64,61,53,34,78,53,17,30.04,30.00,29.95,6,5,5,12,4,,0.00,,,181
2011-11-14,84,76,68,70,64,57,88,67,40,30.04,29.98,29.95,,,,13,4,,0.00,,,117
2011-11-15,86,78,71,73,67,59,89,71,42,30.04,30.00,29.95,6,6,6,10,6,,0.00,,,111
2011-11-16,87,80,73,73,71,64,94,75,46,30.04,29.97,29.92,6,5,4,15,6,20,0.00,,,124
2011-11-17,93,84,75,73,64,50,89,57,23,30.01,29.97,29.92,6,5,5,10,6,,0.00,,,251
2011-11-18,84,78,71,73,68,63,89,72,51,30.04,29.99,29.95,6,5,4,9,5,,0.00,,,4
2011-11-19,86,78,71,72,67,55,94,71,35,30.04,29.96,29.92,6,4,2,10,3,,0.00,,,104
2011-11-20,86,80,75,73,70,63,89,72,45,30.01,29.95,29.92,6,5,5,18,8,,0.00,,,110
2011-11-21,87,82,77,73,67,57,83,65,38,30.01,29.96,29.92,6,6,6,16,8,,0.00,3,,115
2011-11-22,87,81,75,72,66,59,78,63,38,30.01,29.97,29.89,6,6,2,23,11,,0.00,2,,87
2011-11-23,78,72,66,64,56,48,88,58,36,30.09,30.04,30.01,6,5,3,18,13,30,0.00,3,Rain,320
2011-11-24,75,70,64,55,50,43,73,51,34,30.12,30.05,29.98,6,6,6,16,9,,0.00,1,,308
2011-11-25,73,68,62,54,42,28,60,41,19,30.09,30.04,29.98,,,,15,8,,0.00,,,310
2011-11-26,73,68,64,61,55,48,88,68,41,30.04,30.00,29.95,6,5,3,14,6,,0.00,6,Rain,317
2011-11-27,73,68,62,61,56,52,88,65,50,30.06,30.03,29.98,6,5,4,13,6,,0.00,6,Rain,321
2011-11-28,75,72,68,59,54,52,68,56,47,30.09,30.04,30.01,6,6,6,17,12,,0.00,4,Rain,353
2011-11-29,75,70,62,61,57,55,88,63,53,30.04,29.98,29.92,6,6,3,22,12,24,0.00,6,Rain,347
2011-11-30,66,62,59,61,52,43,100,70,52,30.09,30.05,29.98,6,4,2,16,12,25,0.00,5,Rain,307